Zurück zum Katalog

PESSOA

AktivKommunikationSSO
NORAD 100139·PAYLOAD·🇮🇹 Italy

Gestartet Mar 30, 2026 von Vandenberg Space Force Base

Loading…

Nächste Überflüge (nächste 24 Stunden)

TLE

AktuellSource: Space-Track

Epoche: Sep 13, 2026, 21:33 UTC

1 A0139U 26067CZ  26256.89838105  .00006851  00000-0  32326-3 0  9996
2 A0139  97.4643 214.3278 0009769 107.0287 253.2019 15.19738196 25145

Verfolge PESSOA in Echtzeit mit AllMySat

Download on the App Store